Theta_e
289 289 288 288 288 289 287 287 288 288 287 286 286 286 285 284 284 284 284 283 282 282 282 282 281 282 281 281 281 281 280 280 280 277 279 280 279 280 279 280 280 280 281
287 288 287 288 287 287 287 287 287 286 286 286 286 285 285 284 284 283 283 282 282 281 281 281 280 280 280 280 280 280 279 279 278 277 277 277 278 278 279 278 279 280 280
286 286 287 286 286 286 287 287 286 286 286 286 285 285 284 284 283 283 284 282 282 282 281 280 280 279 279 279 279 279 279 278 278 276 276 277 277 278 278 278 278 279 280
285 285 285 285 285 286 287 287 286 286 285 285 285 285 284 283 283 283 283 282 282 281 281 281 280 279 279 278 278 278 278 277 276 276 275 275 276 277 277 277 277 279 278
284 284 284 285 285 285 285 286 286 285 285 285 284 284 284 283 283 282 282 282 281 280 280 280 280 280 281 280 278 278 277 276 275 274 274 274 275 275 275 277 276 277 278
283 283 284 283 283 283 284 284 285 284 284 284 283 283 283 283 286 287 284 282 280 280 278 279 279 279 280 282 282 281 278 275 274 274 275 274 275 276 277 276 275 275 274
283 283 283 282 280 281 282 282 283 283 283 283 283 283 283 283 287 288 286 282 281 280 280 278 278 278 279 280 282 281 281 281 278 276 274 275 276 277 277 275 276 276 275
281 282 283 281 279 280 280 281 281 282 282 282 282 283 283 282 286 288 286 282 281 280 280 279 278 277 278 278 279 279 278 279 279 278 277 278 278 278 278 277 277 275 274
279 281 278 277 279 280 279 280 280 281 281 282 283 283 282 282 285 287 287 282 280 279 279 279 278 277 279 281 278 278 278 278 282 282 280 280 280 281 280 278 273 270 269
278 277 276 276 279 279 279 279 280 280 280 281 281 282 282 282 284 286 287 282 279 278 278 277 279 277 280 281 277 277 275 276 276 277 279 280 280 277 277 276 273 269 269
276 274 274 275 276 276 279 279 279 279 279 279 278 279 280 280 280 285 287 282 279 277 276 275 276 280 281 282 279 276 276 277 277 276 275 274 274 273 273 273 273 272 270
272 272 272 272 272 274 275 277 278 277 277 277 277 277 277 278 279 283 286 285 281 277 276 276 277 281 282 282 280 278 279 278 276 274 272 271 271 271 272 272 273 273 273
269 268 268 269 270 270 271 274 276 277 276 276 275 275 275 276 277 282 284 287 282 278 278 278 279 281 282 282 282 280 279 274 272 269 270 270 270 271 271 271 271 271 271
265 265 266 266 267 268 270 272 276 276 275 275 275 274 274 274 275 277 280 285 281 279 278 278 279 280 281 280 280 280 274 273 271 270 269 270 270 269 269 270 269 269 268
263 264 263 264 264 266 268 270 273 276 277 276 276 276 274 273 274 278 281 282 279 277 276 276 276 277 276 274 273 271 270 270 269 269 268 268 268 268 268 269 268 267 266
260 261 261 262 262 264 265 266 273 276 280 281 281 280 277 279 279 280 282 285 282 280 274 274 274 275 272 272 270 268 268 268 268 268 268 267 267 267 266 267 267 266 265
258 259 259 260 261 261 262 264 265 270 278 280 281 282 283 278 280 281 282 285 282 280 274 274 273 272 271 270 269 268 267 267 268 267 267 266 266 265 265 265 265 265 264
258 258 258 259 259 260 261 262 265 266 268 273 277 280 282 283 280 281 282 283 279 278 274 272 270 270 269 269 268 267 267 266 266 266 265 265 264 264 263 263 264 263 263
258 258 258 258 259 260 261 262 263 263 264 271 273 276 280 282 283 281 282 279 277 275 272 271 270 269 268 268 267 266 265 264 264 263 263 262 262 262 261 262 263 263 263
258 258 259 258 259 259 259 260 261 263 266 270 271 273 275 278 278 276 278 279 279 272 270 269 269 268 267 266 264 263 262 261 261 260 261 261 261 261 262 261 262 262 263
259 259 259 259 259 259 260 260 261 263 267 270 270 272 276 276 276 275 276 277 269 269 267 266 265 264 264 263 261 261 260 260 260 260 260 260 260 259 260 262 262 262 262
261 260 260 260 260 260 261 261 262 263 268 269 270 271 276 276 275 272 269 266 267 266 266 264 263 262 262 261 260 260 259 259 259 259 259 259 259 259 259 260 261 262 263
262 262 262 262 261 261 262 263 263 267 268 269 270 271 271 267 265 263 262 262 262 262 262 261 260 259 260 259 260 261 260 259 259 259 258 258 258 258 259 259 260 261 262
262 263 263 263 262 262 263 264 267 268 268 266 264 264 263 262 261 260 260 260 260 260 261 261 260 259 257 257 257 257 258 257 257 257 257 256 257 257 258 259 261 263 261
261 261 262 263 264 264 263 264 264 263 262 262 261 261 260 260 259 259 259 259 259 258 258 258 258 257 257 256 256 255 255 258 255 254 254 255 256 257 258 260 262 262 260
260 260 260 261 261 262 262 261 260 261 260 260 260 260 260 259 259 259 258 258 257 257 256 256 256 256 256 256 256 257 258 259 257 257 256 257 257 259 262 262 262 260 259
Wind_Speed
16 14 11 10 8 8 9 10 12 11 12 12 15 17 17 17 17 17 16 15 16 14 13 14 14 12 9 7 7 7 6 5 4 3 3 5 6 6 4 4 4 5 5
17 15 13 13 9 9 11 12 11 12 11 14 13 15 16 17 17 18 19 17 20 18 15 13 14 10 13 11 9 11 9 9 5 7 5 5 6 4 4 6 4 4 6
17 15 15 14 13 12 13 12 11 12 13 13 15 17 16 16 18 18 18 17 18 17 17 18 16 16 14 12 12 10 9 7 7 4 5 3 2 3 3 4 6 6 6
16 16 16 16 16 14 15 12 11 13 13 15 16 16 17 18 18 19 19 19 18 16 16 17 17 19 17 17 14 13 10 9 8 6 4 4 5 4 5 5 5 4 8
13 13 14 16 16 15 13 13 11 12 12 14 14 15 15 16 14 19 19 19 18 17 17 17 17 19 24 21 14 15 14 11 9 9 7 5 5 5 7 3 7 5 8
11 12 12 13 16 17 16 13 11 12 12 12 14 15 17 14 23 27 22 18 19 20 20 18 16 19 23 28 26 25 21 16 13 9 8 8 11 8 7 6 6 4 4
13 12 11 12 15 16 16 14 10 10 11 13 14 14 17 16 26 28 28 14 16 19 19 18 16 13 18 17 24 24 24 24 19 13 11 10 9 10 8 7 7 7 8
13 12 12 16 16 15 16 14 13 9 10 12 13 14 15 14 26 28 31 18 15 16 16 18 19 18 19 18 16 14 13 13 14 10 11 10 9 8 8 7 6 5 7
13 12 15 18 18 17 16 16 13 12 9 10 10 12 14 13 23 26 26 18 15 17 16 16 16 17 27 28 17 16 14 12 14 17 14 13 12 14 10 4 5 3 4
12 11 14 14 16 16 16 17 12 10 12 9 10 11 12 13 19 26 26 12 15 13 14 14 24 19 33 33 17 17 15 14 12 9 11 12 8 4 6 7 5 6 4
10 13 15 14 15 16 18 14 15 12 10 11 10 8 8 11 13 26 32 14 12 12 12 12 13 29 33 33 25 14 14 11 15 9 7 5 5 5 5 5 6 6 5
12 15 15 16 14 13 17 16 14 11 10 12 11 9 6 8 13 22 30 27 21 12 13 11 14 31 31 32 23 21 20 16 8 8 7 7 6 6 5 5 6 7 7
13 14 16 17 15 15 15 17 13 10 10 9 8 9 8 7 9 24 24 27 24 12 9 15 24 31 30 27 28 24 20 8 8 6 7 6 6 4 4 3 5 7 8
16 17 15 16 17 15 12 12 12 10 10 9 9 9 7 6 7 7 11 14 21 15 16 13 17 19 21 17 16 16 9 8 8 7 7 6 4 4 4 4 3 4 5
17 17 17 14 15 15 13 12 12 12 13 10 10 10 9 10 10 14 13 10 11 14 12 9 12 13 13 11 8 10 9 8 8 7 7 7 6 6 5 3 3 4 5
19 16 14 12 12 12 12 14 21 28 28 28 29 19 10 19 17 23 25 20 24 29 12 12 11 10 10 11 10 8 8 10 8 7 6 5 5 4 3 1 3 3 6
18 18 14 15 12 12 11 12 14 13 25 26 28 27 28 14 20 22 26 25 28 28 10 12 11 12 11 10 10 9 9 9 9 8 7 7 5 4 3 3 3 4 6
18 22 15 13 13 12 12 12 11 11 12 10 16 21 24 24 19 21 24 24 17 21 11 12 12 11 10 11 10 8 8 8 7 7 6 5 4 3 3 2 3 4 6
16 13 14 13 12 14 12 12 12 12 13 13 8 11 13 20 21 21 25 13 12 12 10 11 11 11 11 10 10 10 10 8 7 7 6 5 4 4 3 3 4 6 9
15 21 20 13 12 12 11 12 11 11 13 11 7 7 6 8 9 10 10 12 9 10 11 11 9 8 9 10 9 9 8 7 6 5 5 4 4 3 3 4 4 5 7
12 13 18 13 13 12 11 11 11 10 13 6 6 6 13 8 7 9 8 8 9 11 10 10 9 8 8 9 9 8 7 7 6 5 5 4 4 3 4 5 5 6 7
12 13 12 12 11 11 10 10 10 11 9 5 4 6 18 7 6 5 7 8 9 10 9 11 9 9 9 10 10 8 7 7 5 5 4 3 4 4 3 5 5 6 7
12 13 13 10 10 10 9 9 10 9 4 5 5 5 1 6 8 8 8 8 8 10 10 10 10 9 7 7 7 8 8 7 7 6 5 5 4 3 3 5 6 6 7
11 12 8 3 4 7 7 9 4 3 2 4 6 6 7 7 9 9 8 8 9 9 9 9 9 11 9 7 5 4 4 4 4 5 6 5 3 3 4 6 7 9 9
10 10 9 8 6 5 5 5 6 6 6 6 7 7 8 8 9 9 9 9 9 10 10 9 8 11 10 10 8 7 6 8 6 6 5 5 6 7 6 7 8 8 8
10 10 9 8 8 8 7 7 7 7 7 7 7 8 8 9 9 9 9 10 9 9 9 6 8 9 8 6 6 7 8 8 8 11 7 6 6 7 7 8 9 6 8
Wind_Direction
354 339 301 275 251 236 222 218 212 195 190 191 194 196 197 192 190 192 193 185 195 194 196 188 181 169 171 173 170 170 175 170 188 163 195 186 209 221 239 268 269 289 290
347 342 333 304 271 253 243 230 210 201 196 193 197 203 197 197 193 196 193 190 192 194 192 192 182 169 172 174 178 180 182 185 166 191 185 202 210 242 283 302 301 297 294
345 344 344 341 319 280 258 242 222 210 204 207 192 191 205 202 198 200 204 196 197 196 193 185 181 176 181 177 179 179 178 177 191 177 183 220 276 323 331 310 298 303 298
341 339 342 347 336 315 288 261 233 225 210 208 207 208 196 199 200 199 198 195 196 196 193 195 184 182 185 180 181 180 171 170 181 187 198 217 242 239 250 286 294 277 281
335 334 333 339 336 328 310 285 257 232 230 221 211 209 202 204 203 202 198 196 194 190 192 194 191 185 187 188 176 176 171 171 174 181 192 199 207 198 214 199 247 272 274
326 329 326 341 336 331 323 303 277 253 238 224 221 212 210 210 213 209 198 193 192 193 193 192 192 185 184 190 190 181 177 171 175 178 187 203 206 203 205 217 242 260 299
323 324 328 335 329 327 320 312 288 262 239 232 227 222 223 218 211 204 202 203 200 204 197 188 185 185 181 181 195 187 192 190 183 175 185 194 198 197 192 214 234 241 255
322 321 331 331 322 320 318 315 309 282 249 236 233 229 230 226 216 207 196 194 199 211 205 194 184 176 181 173 178 183 187 196 190 188 196 197 205 186 206 214 253 267 279
316 326 333 326 316 319 318 316 310 299 274 250 239 232 228 231 221 213 198 193 197 196 196 193 192 180 176 174 174 178 183 192 199 192 198 202 208 214 212 188 239 232 254
311 321 317 311 307 309 307 308 302 291 284 269 251 242 228 231 219 214 206 196 195 191 188 190 194 181 176 180 175 176 181 188 181 191 209 214 221 227 236 234 220 220 227
311 311 306 305 306 303 299 297 296 292 288 274 259 243 235 226 218 219 212 200 201 185 185 179 188 188 180 183 178 181 187 160 181 176 179 178 196 216 220 211 210 212 206
307 303 304 303 301 298 295 290 290 286 275 272 267 263 234 224 215 231 224 197 195 192 191 193 189 186 182 180 173 182 177 165 163 160 171 196 197 202 204 206 228 235 237
295 292 295 294 291 290 291 295 288 272 261 255 247 248 239 215 218 229 234 213 195 192 192 189 181 179 178 179 177 175 182 156 153 160 185 196 198 185 209 234 258 267 267
289 289 289 289 291 287 283 278 271 265 263 257 247 247 244 230 220 229 221 208 192 181 181 175 176 169 171 170 176 177 143 153 152 176 187 181 164 190 217 224 255 281 287
287 287 286 282 280 281 275 278 278 258 247 255 250 241 225 221 211 203 225 194 176 163 159 164 174 171 170 159 148 139 140 138 150 178 189 178 182 188 208 209 259 290 277
287 286 283 284 281 278 279 284 269 274 264 252 254 242 236 237 214 206 208 203 171 164 156 167 176 175 158 160 149 140 136 145 164 191 185 194 191 190 199 238 269 276 283
280 283 282 279 277 276 273 276 287 284 276 259 261 249 245 220 221 215 206 206 174 169 174 174 174 165 161 160 160 162 160 156 163 180 177 182 181 188 180 235 286 289 295
277 277 276 273 271 270 270 268 266 273 274 258 250 259 241 236 209 218 213 206 180 181 176 171 163 162 160 155 154 158 146 145 169 168 175 176 171 178 206 238 279 297 298
277 274 271 270 267 266 267 268 269 270 271 270 252 260 258 233 207 209 214 212 184 176 167 162 159 161 162 157 149 148 149 157 162 161 173 169 168 193 215 255 270 283 286
273 268 263 263 263 261 259 260 262 261 262 248 240 239 232 226 195 195 204 217 194 153 153 154 152 153 149 141 137 133 134 146 156 166 170 179 183 187 226 250 269 292 289
273 270 264 263 258 257 258 259 260 264 269 232 235 228 229 218 192 185 191 217 140 143 132 124 128 131 129 126 121 131 136 151 168 169 173 181 187 203 218 254 273 274 281
276 270 265 258 254 254 253 254 260 261 251 224 225 220 241 203 175 126 106 114 122 124 126 126 125 129 138 132 136 143 152 156 168 180 185 188 205 219 234 263 276 287 279
296 289 278 256 245 247 253 252 256 252 223 216 221 219 106 98 99 100 106 107 106 108 111 114 121 118 115 124 146 149 157 173 178 170 190 195 211 223 235 267 271 267 269
313 313 303 288 232 240 246 256 243 219 172 92 86 89 94 94 103 102 102 104 104 101 104 109 115 126 127 127 137 148 154 136 153 190 193 207 222 235 251 251 256 258 265
337 343 355 7 13 22 33 42 49 58 70 79 82 85 89 94 98 103 105 105 105 105 101 107 112 129 139 150 160 169 183 194 185 191 202 208 232 246 248 250 251 262 265
355 0 5 10 19 26 35 42 47 52 62 71 78 86 94 99 101 106 105 103 101 101 109 110 125 126 137 151 171 187 208 215 214 217 205 209 228 242 239 241 260 259 263